Time,TemperatureF,DewpointF,PressureIn,WindDirection,WindDirectionDegrees,WindSpeedMPH,WindSpeedGustMPH,Humidity,HourlyPrecipIn,Conditions,Clouds,dailyrainin,SolarRadiationWatts/m^2,SoftwareType,DateUTC
2015-03-01 00:03:00,11.0,-6.0,-100.00,ESE,115,1.0,2.0,45,0.00,,,0.00,0.000000,,2015-03-01 05:03:00,
2015-03-01 00:43:00,11.0,-3.0,-100.00,ENE,71,1.0,3.0,52,0.00,,,0.00,0.000000,,2015-03-01 05:43:00,
2015-03-01 00:53:00,11.0,-3.0,-100.00,ENE,71,1.0,3.0,52,0.00,,,0.00,0.000000,,2015-03-01 05:53:00,
2015-03-01 01:43:00,13.0,-3.0,-100.00,WSW,238,1.0,4.0,47,0.00,,,0.00,0.000000,,2015-03-01 06:43:00,
2015-03-01 01:53:00,13.0,-3.0,-100.00,WSW,238,1.0,4.0,47,0.00,,,0.00,0.000000,,2015-03-01 06:53:00,
2015-03-01 02:02:00,13.0,-3.0,-100.00,WSW,238,1.0,4.0,47,0.00,,,0.00,0.000000,,2015-03-01 07:02:00,
2015-03-01 02:43:00,15.0,-2.0,-100.00,SW,235,1.0,4.0,45,0.00,,,0.00,0.000000,,2015-03-01 07:43:00,
2015-03-01 02:52:00,15.0,-2.0,-100.00,SW,235,1.0,4.0,45,0.00,,,0.00,0.000000,,2015-03-01 07:52:00,
2015-03-01 03:03:00,15.0,-2.0,-100.00,SW,235,1.0,4.0,45,0.00,,,0.00,0.000000,,2015-03-01 08:03:00,
2015-03-01 03:42:00,17.0,9.0,-100.00,South,179,2.0,11.0,70,0.00,,,0.00,0.000000,,2015-03-01 08:42:00,
2015-03-01 03:52:00,17.0,9.0,-100.00,South,179,2.0,11.0,70,0.00,,,0.00,0.000000,,2015-03-01 08:52:00,
2015-03-01 04:44:00,16.0,13.0,-100.00,North,-9999,0.0,4.0,86,0.00,,,0.00,0.000000,,2015-03-01 09:44:00,
2015-03-01 04:54:00,16.0,13.0,-100.00,North,-9999,0.0,4.0,86,0.00,,,0.00,0.000000,,2015-03-01 09:54:00,
2015-03-01 05:03:00,16.0,13.0,-100.00,North,-9999,0.0,4.0,86,0.00,,,0.00,0.000000,,2015-03-01 10:03:00,
2015-03-01 05:43:00,16.0,13.0,-100.00,SW,230,2.0,5.0,87,0.00,,,-99.99,0.000000,,2015-03-01 10:43:00,
2015-03-01 05:54:00,16.0,13.0,-100.00,SW,230,2.0,5.0,87,0.00,,,-99.99,0.000000,,2015-03-01 10:54:00,
2015-03-01 06:03:00,16.0,13.0,-100.00,SW,230,2.0,5.0,87,0.00,,,-99.99,0.000000,,2015-03-01 11:03:00,
2015-03-01 06:43:00,17.0,14.0,-100.00,North,-9999,0.0,3.0,88,0.00,,,0.00,0.000000,,2015-03-01 11:43:00,
2015-03-01 06:53:00,17.0,14.0,-100.00,North,-9999,0.0,3.0,88,0.00,,,0.00,0.000000,,2015-03-01 11:53:00,
2015-03-01 07:03:00,17.0,14.0,-100.00,North,-9999,0.0,3.0,88,0.00,,,0.00,0.000000,,2015-03-01 12:03:00,
2015-03-01 07:43:00,17.0,14.0,-100.00,North,-9999,0.0,3.0,89,0.00,,,0.00,0.000000,,2015-03-01 12:43:00,
2015-03-01 07:54:00,17.0,14.0,-100.00,North,-9999,0.0,3.0,89,0.00,,,0.00,0.000000,,2015-03-01 12:54:00,
2015-03-01 08:03:00,17.0,14.0,-100.00,North,-9999,0.0,3.0,89,0.00,,,0.00,0.000000,,2015-03-01 13:03:00,
2015-03-01 08:43:00,19.0,16.0,-100.00,North,-9999,0.0,2.0,87,0.00,,,0.00,7.000000,,2015-03-01 13:43:00,
2015-03-01 08:53:00,19.0,16.0,-100.00,North,-9999,0.0,2.0,87,0.00,,,0.00,7.000000,,2015-03-01 13:53:00,
2015-03-01 09:02:00,19.0,16.0,-100.00,North,-9999,0.0,2.0,87,0.00,,,0.00,7.000000,,2015-03-01 14:02:00,
2015-03-01 09:42:00,23.0,18.0,-100.00,North,-9999,0.0,2.0,81,0.00,,,0.00,23.000000,,2015-03-01 14:42:00,
2015-03-01 09:52:00,23.0,18.0,-100.00,North,-9999,0.0,2.0,81,0.00,,,0.00,23.000000,,2015-03-01 14:52:00,
2015-03-01 10:02:00,23.0,18.0,-100.00,North,-9999,0.0,2.0,81,0.00,,,0.00,23.000000,,2015-03-01 15:02:00,
2015-03-01 10:44:00,25.0,20.0,-100.00,SSW,200,3.0,7.0,80,0.00,,,0.00,32.000000,,2015-03-01 15:44:00,
2015-03-01 10:54:00,25.0,20.0,-100.00,SSW,200,3.0,7.0,80,0.00,,,0.00,32.000000,,2015-03-01 15:54:00,
2015-03-01 11:04:00,25.0,20.0,-100.00,SSW,200,3.0,7.0,80,0.00,,,0.00,32.000000,,2015-03-01 16:04:00,
2015-03-01 11:43:00,28.0,22.0,-100.00,South,172,5.0,8.0,77,0.00,,,0.00,46.000000,,2015-03-01 16:43:00,
2015-03-01 11:53:00,28.0,22.0,-100.00,South,172,5.0,8.0,77,0.00,,,0.00,46.000000,,2015-03-01 16:53:00,
2015-03-01 12:03:00,28.0,22.0,-100.00,South,172,5.0,8.0,77,0.00,,,0.00,46.000000,,2015-03-01 17:03:00,